Location: ??????
(55.6130°N, 37.7882°E)
Time: 03:54:26
(UTC+00:00)

Cosmos 1420 Rocket - Pass Details

Date: 14 April 2024
Orbit: 752 x 779 km, 74.0° (Epoch: 23 May)

Event Time Altitude Azimuth Distance (km) Brightness Sun altitude
Rises 00:27:51 0° 331° (NNW) 3,236 7.4 -15.0°
Reaches altitude 10° 00:30:14 10° 333° (NNW) 2,310 6.7 -14.8°
Maximum altitude 00:35:30 80° 61° (ENE) 787 4.1 -14.3°
Drops below altitude 10° 00:40:45 10° 149° (SSE) 2,314 6.4 -13.7°
Sets 00:43:08 0° 150° (SSE) 3,241 7.1 -13.4°
